When you browse on this site, cookies collect data to enhance your experience and personalize the content and advertising you see.
Visit our Privacy Policy to learn more. By continuing to use the site, you agree to this use of cookies and data.
  • In Netherlands
  • List of Countries
  • For 7 days
  • Water Temperature
  • Weather Map
  • Weather Widgets
  • user-avatar
    Login

    Hourly Weather Bakni

    Today, 24 February, Monday

    Time Temperature Precipitation Wind Pressure Humidity
    00:00 -1°C° 0 mm 1 mps 635 mmHg 79%
    01:00 -3°C° 0 mm 2 mps 634 mmHg 78%
    02:00 -3°C° 0 mm 2 mps 634 mmHg 76%
    03:00 -3°C° 0 mm 2 mps 634 mmHg 74%
    04:00 -3°C° 0 mm 2 mps 633 mmHg 73%
    05:00 -3°C° 0 mm 2 mps 633 mmHg 72%
    06:00 -3°C° 0 mm 2 mps 633 mmHg 72%
    07:00 -2°C° 0 mm 2 mps 633 mmHg 72%
    08:00 -1°C° 0 mm 2 mps 633 mmHg 72%
    09:00 +1°C° 0 mm 2 mps 633 mmHg 72%
    10:00 +2°C° 0 mm 2 mps 633 mmHg 73%
    11:00 +3°C° 0 mm 2 mps 632 mmHg 74%
    12:00 +3°C° 0 mm 2 mps 632 mmHg 75%
    13:00 +4°C° 0 mm 2 mps 631 mmHg 74%
    14:00 +4°C° 0 mm 2 mps 630 mmHg 74%
    15:00 +5°C° 0 mm 1 mps 629 mmHg 74%
    16:00 +3°C° 0 mm 2 mps 628 mmHg 73%
    17:00 +1°C° 0 mm 2 mps 627 mmHg 73%
    18:00 -1°C° 0 mm 2 mps 627 mmHg 72%
    19:00 -1°C° 0 mm 3 mps 626 mmHg 69%
    20:00 -1°C° 0 mm 3 mps 626 mmHg 66%
    21:00 -1°C° 0 mm 3 mps 626 mmHg 63%
    22:00 -2°C° 0 mm 4 mps 625 mmHg 62%
    23:00 -2°C° 0 mm 4 mps 624 mmHg 61%

    Tomorrow, 25 February, Tuesday

    Time Temperature Precipitation Wind Pressure Humidity
    00:00 -2°C° 0 mm 4 mps 624 mmHg 61%
    01:00 -2°C° 0 mm 4 mps 624 mmHg 60%
    02:00 -2°C° 0 mm 4 mps 623 mmHg 59%
    03:00 -2°C° 0 mm 4 mps 623 mmHg 59%
    04:00 -2°C° 0 mm 4 mps 623 mmHg 59%
    05:00 -2°C° 0 mm 4 mps 624 mmHg 59%
    06:00 -2°C° 0 mm 4 mps 624 mmHg 59%
    07:00 -1°C° 0 mm 4 mps 625 mmHg 60%
    08:00 0°C° 0 mm 3 mps 626 mmHg 62%
    09:00 +2°C° 0 mm 2 mps 627 mmHg 63%
    10:00 +2°C° 0 mm 2 mps 627 mmHg 68%
    11:00 +1°C° 0 mm 2 mps 628 mmHg 74%
    12:00 +1°C° 0 mm 2 mps 628 mmHg 79%
    13:00 +1°C° 0.7 mm 2 mps 628 mmHg 83%
    14:00 -1°C° 0.7 mm 2 mps 628 mmHg 86%
    15:00 -2°C° 0.7 mm 3 mps 628 mmHg 90%
    16:00 -2°C° 1.5 mm 2 mps 628 mmHg 92%
    17:00 -3°C° 1.5 mm 2 mps 629 mmHg 93%
    18:00 -2°C° 1.5 mm 1 mps 629 mmHg 95%
    19:00 -2°C° 0.8 mm 1 mps 630 mmHg 93%
    20:00 -3°C° 0.8 mm 1 mps 630 mmHg 92%
    21:00 -4°C° 0.8 mm 0 mps 631 mmHg 91%
    22:00 -4°C° 0.1 mm 1 mps 631 mmHg 89%
    23:00 -6°C° 0.1 mm 1 mps 631 mmHg 87%

    Day after tomorrow, 26 February, Wednesday

    Time Temperature Precipitation Wind Pressure Humidity
    00:00 -7°C° 0.1 mm 1 mps 631 mmHg 85%
    01:00 -8°C° 0 mm 2 mps 631 mmHg 81%
    02:00 -8°C° 0 mm 2 mps 631 mmHg 76%
    03:00 -9°C° 0 mm 2 mps 632 mmHg 71%
    04:00 -9°C° 0 mm 2 mps 632 mmHg 68%
    05:00 -9°C° 0 mm 2 mps 632 mmHg 64%
    06:00 -9°C° 0 mm 2 mps 632 mmHg 60%
    07:00 -7°C° 0 mm 2 mps 633 mmHg 58%
    08:00 -3°C° 0 mm 1 mps 634 mmHg 57%
    09:00 -2°C° 0 mm 1 mps 635 mmHg 55%
    10:00 -1°C° 0 mm 1 mps 635 mmHg 58%
    11:00 0°C° 0 mm 1 mps 635 mmHg 61%
    12:00 +1°C° 0 mm 1 mps 635 mmHg 64%
    13:00 +1°C° 0 mm 1 mps 635 mmHg 66%
    14:00 +2°C° 0 mm 1 mps 635 mmHg 68%
    15:00 +3°C° 0 mm 1 mps 635 mmHg 71%
    16:00 -1°C° 0 mm 2 mps 634 mmHg 68%
    17:00 -2°C° 0 mm 2 mps 634 mmHg 66%
    18:00 -3°C° 0 mm 2 mps 633 mmHg 64%
    19:00 -3°C° 0 mm 2 mps 634 mmHg 58%
    20:00 -4°C° 0 mm 3 mps 634 mmHg 53%
    21:00 -2°C° 0 mm 3 mps 634 mmHg 47%
    22:00 -2°C° 0 mm 3 mps 633 mmHg 44%
    23:00 -2°C° 0 mm 3 mps 633 mmHg 41%

    27 February, Thursday

    Time Temperature Precipitation Wind Pressure Humidity
    00:00 -1°C° 0 mm 3 mps 633 mmHg 38%
    01:00 -1°C° 0 mm 3 mps 633 mmHg 36%
    02:00 -1°C° 0 mm 3 mps 633 mmHg 35%
    03:00 0°C° 0 mm 3 mps 633 mmHg 33%
    04:00 0°C° 0 mm 3 mps 633 mmHg 33%
    05:00 0°C° 0 mm 3 mps 633 mmHg 33%
    06:00 0°C° 0 mm 3 mps 633 mmHg 33%
    07:00 +2°C° 0 mm 3 mps 633 mmHg 39%
    08:00 +4°C° 0 mm 2 mps 634 mmHg 45%
    09:00 +6°C° 0 mm 2 mps 635 mmHg 51%
    10:00 +7°C° 0 mm 2 mps 635 mmHg 57%
    11:00 +8°C° 0 mm 2 mps 635 mmHg 63%
    12:00 +9°C° 0 mm 2 mps 635 mmHg 70%
    13:00 +9°C° 0 mm 2 mps 634 mmHg 68%
    14:00 +9°C° 0 mm 2 mps 634 mmHg 65%
    15:00 +9°C° 0 mm 2 mps 634 mmHg 63%
    16:00 +8°C° 0 mm 2 mps 633 mmHg 57%
    17:00 +7°C° 0 mm 3 mps 633 mmHg 51%
    18:00 +4°C° 0 mm 3 mps 632 mmHg 44%
    19:00 +4°C° 0 mm 3 mps 632 mmHg 41%
    20:00 +4°C° 0 mm 3 mps 632 mmHg 38%
    21:00 +4°C° 0 mm 4 mps 632 mmHg 34%
    22:00 +4°C° 0 mm 4 mps 632 mmHg 34%
    23:00 +4°C° 0 mm 4 mps 631 mmHg 34%

    28 February, Friday

    Time Temperature Precipitation Wind Pressure Humidity
    00:00 +4°C° 0 mm 4 mps 631 mmHg 33%
    01:00 +4°C° 0 mm 4 mps 631 mmHg 33%
    02:00 +5°C° 0 mm 4 mps 630 mmHg 32%
    03:00 +5°C° 0 mm 4 mps 630 mmHg 32%
    04:00 +5°C° 0 mm 5 mps 629 mmHg 31%
    05:00 +5°C° 0 mm 5 mps 629 mmHg 31%
    06:00 +5°C° 0 mm 5 mps 628 mmHg 30%
    07:00 +5°C° 0 mm 5 mps 628 mmHg 33%
    08:00 +6°C° 0 mm 4 mps 628 mmHg 36%
    09:00 +7°C° 0 mm 4 mps 628 mmHg 39%
    10:00 +9°C° 0 mm 3 mps 628 mmHg 42%
    11:00 +10°C° 0 mm 3 mps 628 mmHg 45%
    12:00 +12°C° 0 mm 2 mps 628 mmHg 49%
    13:00 +12°C° 0 mm 2 mps 628 mmHg 49%
    14:00 +12°C° 0 mm 2 mps 628 mmHg 50%
    15:00 +12°C° 0 mm 2 mps 628 mmHg 51%
    16:00 +9°C° 0 mm 2 mps 627 mmHg 50%
    17:00 +7°C° 0 mm 3 mps 627 mmHg 48%
    18:00 +4°C° 0 mm 3 mps 627 mmHg 47%
    19:00 +4°C° 0 mm 3 mps 627 mmHg 47%
    20:00 +3°C° 0 mm 3 mps 627 mmHg 46%
    21:00 +3°C° 0 mm 3 mps 627 mmHg 46%
    22:00 +2°C° 0 mm 3 mps 627 mmHg 48%
    23:00 +2°C° 0 mm 3 mps 627 mmHg 49%

    29 February, Saturday

    Time Temperature Precipitation Wind Pressure Humidity
    00:00 +2°C° 0 mm 3 mps 627 mmHg 51%
    01:00 +3°C° 0 mm 2 mps 627 mmHg 55%
    02:00 +3°C° 0 mm 2 mps 627 mmHg 58%
    03:00 +2°C° 0 mm 2 mps 627 mmHg 62%
    04:00 +2°C° 0 mm 2 mps 628 mmHg 64%
    05:00 +2°C° 0 mm 1 mps 628 mmHg 67%
    06:00 +2°C° 0 mm 1 mps 628 mmHg 70%
    07:00 +3°C° 0 mm 1 mps 629 mmHg 72%
    08:00 +3°C° 0 mm 1 mps 630 mmHg 73%
    09:00 +4°C° 0 mm 1 mps 631 mmHg 75%
    10:00 +3°C° 0 mm 2 mps 631 mmHg 79%
    11:00 +3°C° 0 mm 2 mps 631 mmHg 84%
    12:00 +1°C° 0 mm 3 mps 631 mmHg 89%
    13:00 +2°C° 0.2 mm 2 mps 631 mmHg 91%
    14:00 +1°C° 0.2 mm 2 mps 630 mmHg 93%
    15:00 -1°C° 0.2 mm 2 mps 630 mmHg 96%
    16:00 -2°C° 0.7 mm 2 mps 630 mmHg 95%
    17:00 -3°C° 0.7 mm 2 mps 631 mmHg 95%
    18:00 -3°C° 0.7 mm 2 mps 631 mmHg 94%
    19:00 -4°C° 0.3 mm 2 mps 631 mmHg 93%
    20:00 -2°C° 0.3 mm 1 mps 631 mmHg 92%
    21:00 -2°C° 0.3 mm 1 mps 632 mmHg 90%
    22:00 -2°C° 0 mm 1 mps 632 mmHg 88%
    23:00 -2°C° 0 mm 1 mps 632 mmHg 86%
    Show more